Regional Weather Roundup
Issued by NWS

Home | Current Version | Previous Version | Text Only | Print | Product List | Glossary Off
Versions: 1 2 3 4 5 6 7 8 9 10 11 12 13 14 15 16 17 18 19 20 21 22 23 24 25 26 27 28 29 30 31 32 33 34 35 36 37 38 39 40 41 42 43 44 45 46 47 48 49 50

000
ASUS43 KLOT 040602
RWRIL

ILLINOIS REGIONAL WEATHER ROUNDUP
NATIONAL WEATHER SERVICE CHICAGO/ROMEOVILLE IL
100 AM CDT MON MAY 04 2015

NOTE: "FAIR" INDICATES FEW OR NO CLOUDS BELOW 12,000 FEET WITH NO
SIGNIFICANT WEATHER AND/OR OBSTRUCTIONS TO VISIBILITY.

* THESE STATIONS ARE NOT UNDER NWS QUALITY CONTROL. THEY ALSO MAY NOT
  REPORT WEATHER SUCH AS PRECIPITATION OR FOG.

ILZ001-002-007-009-015-016-024-040700-
NORTHWEST ILLINOIS

CITY           SKY/WX    TMP DP  RH WIND       PRES   REMARKS
MOLINE         CLOUDY    69  51  52 N20G32    29.96R THUNDER
6HR MIN TEMP:  69; 6HR MAX TEMP:  81;

STERLING*      CLOUDY    68  54  60 W7        29.92R THUNDER
$$

ILZ003-004-008-010-011-017-018-040700-
NORTH CENTRAL ILLINOIS

CITY           SKY/WX    TMP DP  RH WIND       PRES   REMARKS
ROCKFORD       CLOUDY    61  55  81 S8        29.90F
6HR MIN TEMP:  61; 6HR MAX TEMP:  65; 6HR PCP:  0.03;

$$

ILZ005-006-012>014-019>023-040700-
NORTHEAST ILLINOIS

CITY           SKY/WX    TMP DP  RH WIND       PRES   REMARKS
CHICAGO-OHARE  MOCLDY    67  48  50 SW16G23   29.90F
6HR MIN TEMP:  62; 6HR MAX TEMP:  67; 6HR PCP:  0.32;

CHICAGO-MIDWAY MOCLDY    68  49  50 SW13      29.93S
6HR MIN TEMP:  65; 6HR MAX TEMP:  72; 6HR PCP:  0.18;

AURORA         MOCLDY    66  48  52 S15       29.92F
6HR MIN TEMP:  61; 6HR MAX TEMP:  66; 6HR PCP:  0.05;

WAUKEGAN       MOCLDY    65  52  62 SW15      29.88F
6HR MIN TEMP:  60; 6HR MAX TEMP:  65; 6HR PCP:  0.03;

DUPAGE AIRPORT MOCLDY    64  50  60 S9        29.91F
6HR MIN TEMP:  59; 6HR MAX TEMP:  66; 6HR PCP:  0.28;

WHEELING       MOCLDY    67  49  52 S15G24    29.91F
6HR MIN TEMP:  61; 6HR MAX TEMP:  67; 6HR PCP:  0.06;

NORTHERLY ISL    N/A     68  46  45 SW10        N/A
$$

LMZ740>746-040700-
SOUTHERN LAKE MICHIGAN

STATION/POSITION SKY/WX   TEMP    WIND        PRES    VSBY  WAVE
                          AIR SEA DIR/SP/G                  HT/PER
                          (F)     (DEG/KT/KT) (MB)    (MI)  (FT/S)
HARRISON CRIB              68     200/ 24/ 27   N/A
BURNHAM HARBOR             68     190/ 15       N/A
CALUMET HARBOR             67     180/  8/ 11   N/A
BURNS HARBOR               69     180/ 11/ 16 1014.6F
MICHIGAN CITY              68     160/ 15/ 17   N/A
MICHIGAN CITY 6N           63 51  200/ 14/ 17   N/A           1
ST. JOSEPH                 62 49  220/ 12/ 14   N/A           1/ 2
$$

ILZ025>027-034>036-040-047-049-050-058-095>099-040700-
WEST-CENTRAL ILLINOIS

CITY           SKY/WX    TMP DP  RH WIND       PRES   REMARKS
QUINCY         CLOUDY    69  53  56 S10       29.95S
$$

ILZ028>032-037-038-041>044-048-051>054-059>061-040700-
CENTRAL ILLINOIS

CITY           SKY/WX    TMP DP  RH WIND       PRES   REMARKS
DECATUR        MOCLDY    68  46  45 S13       30.00S
PEORIA         CLOUDY    68  49  50 S9        29.95S
6HR MIN TEMP:  68; 6HR MAX TEMP:  81;

SPRINGFIELD    CLOUDY    71  50  47 S14G24    29.97S
6HR MIN TEMP:  71; 6HR MAX TEMP:  80;

TAYLORVILLE    NOT AVBL
$$

ILZ033-039-045-046-055>057-062-063-040700-
EAST-CENTRAL ILLINOIS

CITY           SKY/WX    TMP DP  RH WIND       PRES   REMARKS
CHAMPAIGN      PTCLDY    65  45  48 S14       30.01R
MATTOON        PTCLDY    65  45  48 S7        30.02S
$$

ILZ079-100>102-040700-
SOUTHWEST ILLINOIS

CITY           SKY/WX    TMP DP  RH WIND       PRES   REMARKS
BELLEVILLE     CLOUDY    67  53  58 CALM      30.01R
CAHOKIA*       FAIR      67  53  61 SE3       30.01R
$$

ILZ064>066-069>071-074>076-080>082-084>086-088>090-092>094-040700-
SOUTH-CENTRAL ILLINOIS

CITY           SKY/WX    TMP DP  RH WIND       PRES   REMARKS
CARBONDALE     PTCLDY    66  47  50 S8        30.03R
6HR MIN TEMP:  65; 6HR MAX TEMP:  75;

MT. VERNON     PTCLDY   N/A N/A N/A S7        30.05R
$$

ILZ067-068-072-073-078-083-087-091-040700-
SOUTHEAST ILLINOIS

CITY           SKY/WX    TMP DP  RH WIND       PRES   REMARKS
LAWRENCEVILLE  CLEAR     58  50  75 S8        30.05S
$$

ABBREVIATIONS USED IN REMARKS
   TC - TEMPERATURE IN CELSIUS
  WCI - WIND CHILL INDEX
   HX - HEAT INDEX
  VSB - VISIBILITY
$$




USA.gov is the U.S. government's official web portal to all federal, state and local government web resources and services.